TimeEST,TemperatureF,Dew PointF,Humidity,Sea Level PressureIn,VisibilityMPH,Wind Direction,Wind SpeedMPH,Gust SpeedMPH,PrecipitationIn,Events,Conditions,WindDirDegrees,DateUTC
12:15 AM,28.4,26.6,93,29.88,10.0,WSW,11.5,-,N/A,,Overcast,240,2013-01-01 05:15:00
12:35 AM,28.4,24.8,86,29.87,10.0,WSW,9.2,16.1,N/A,,Overcast,240,2013-01-01 05:35:00
12:55 AM,28.4,24.8,86,29.87,10.0,WSW,10.4,-,N/A,,Overcast,240,2013-01-01 05:55:00
1:15 AM,28.4,26.6,93,29.88,10.0,WSW,10.4,-,N/A,,Overcast,240,2013-01-01 06:15:00
1:35 AM,28.4,26.6,93,29.87,7.0,West,9.2,-,N/A,,Overcast,270,2013-01-01 06:35:00
1:55 AM,28.4,26.6,93,29.87,8.0,West,11.5,16.1,N/A,,Overcast,280,2013-01-01 06:55:00
2:15 AM,28.4,24.8,86,29.89,10.0,WNW,12.7,20.7,N/A,,Overcast,300,2013-01-01 07:15:00
2:35 AM,28.4,24.8,86,29.90,7.0,WNW,11.5,-,N/A,,Overcast,300,2013-01-01 07:35:00
3:15 AM,26.6,23.0,86,29.90,7.0,WNW,10.4,-,N/A,,Overcast,300,2013-01-01 08:15:00
3:35 AM,26.6,21.2,80,29.90,10.0,WNW,9.2,-,N/A,,Overcast,300,2013-01-01 08:35:00
3:55 AM,26.6,21.2,80,29.90,10.0,NW,10.4,-,N/A,,Overcast,310,2013-01-01 08:55:00
4:15 AM,26.6,21.2,80,29.90,10.0,WNW,8.1,-,N/A,,Overcast,290,2013-01-01 09:15:00
4:35 AM,26.6,21.2,80,29.90,10.0,NW,9.2,-,N/A,,Overcast,310,2013-01-01 09:35:00
4:55 AM,26.6,21.2,80,29.90,10.0,NW,8.1,-,N/A,,Overcast,310,2013-01-01 09:55:00
5:15 AM,26.6,21.2,80,29.90,10.0,NW,8.1,-,N/A,,Overcast,310,2013-01-01 10:15:00
5:35 AM,26.6,19.4,74,29.91,10.0,WNW,10.4,-,N/A,,Overcast,300,2013-01-01 10:35:00
6:15 AM,26.6,17.6,69,29.92,10.0,WNW,10.4,-,N/A,,Overcast,300,2013-01-01 11:15:00
6:35 AM,24.8,17.6,74,29.92,10.0,NW,11.5,-,N/A,,Overcast,310,2013-01-01 11:35:00
7:15 AM,24.8,19.4,80,29.91,10.0,NNW,8.1,-,N/A,,Overcast,330,2013-01-01 12:15:00
7:35 AM,24.8,19.4,80,29.92,10.0,NNW,9.2,16.1,N/A,,Overcast,330,2013-01-01 12:35:00
8:15 AM,24.8,17.6,74,29.93,10.0,North,8.1,-,N/A,,Overcast,350,2013-01-01 13:15:00
8:35 AM,23.0,17.6,80,29.95,10.0,NW,8.1,-,N/A,,Overcast,320,2013-01-01 13:35:00
8:55 AM,23.0,17.6,80,29.95,2.0,North,9.2,-,N/A,,Overcast,350,2013-01-01 13:55:00
9:15 AM,21.2,17.6,86,29.94,8.0,NNW,8.1,-,N/A,,Overcast,340,2013-01-01 14:15:00
9:35 AM,21.2,15.8,80,29.95,4.0,NNW,8.1,-,N/A,,Overcast,340,2013-01-01 14:35:00
9:55 AM,21.2,15.8,80,29.97,4.0,NNW,9.2,-,N/A,,Overcast,340,2013-01-01 14:55:00
10:15 AM,21.2,15.8,80,29.97,3.0,NNW,8.1,-,N/A,,Overcast,340,2013-01-01 15:15:00
10:35 AM,21.2,17.6,86,29.98,4.0,NNW,11.5,-,N/A,,Overcast,330,2013-01-01 15:35:00
10:55 AM,21.2,17.6,86,29.98,5.0,NW,9.2,-,N/A,,Overcast,320,2013-01-01 15:55:00
11:15 AM,21.2,15.8,80,29.97,4.0,NNW,6.9,-,N/A,,Overcast,330,2013-01-01 16:15:00
11:35 AM,21.2,17.6,86,29.97,5.0,NW,9.2,-,N/A,,Overcast,320,2013-01-01 16:35:00
11:55 AM,21.2,17.6,86,29.95,4.0,NNW,10.4,-,N/A,,Overcast,340,2013-01-01 16:55:00
12:15 PM,21.2,17.6,86,29.95,5.0,NNW,8.1,-,N/A,,Overcast,330,2013-01-01 17:15:00
12:35 PM,21.2,15.8,80,29.94,5.0,NNW,6.9,-,N/A,,Overcast,340,2013-01-01 17:35:00
12:55 PM,21.2,15.8,80,29.92,3.0,North,5.8,-,N/A,,Overcast,350,2013-01-01 17:55:00
1:15 PM,21.2,15.8,80,29.92,3.0,NNW,8.1,-,N/A,,Overcast,330,2013-01-01 18:15:00
1:35 PM,21.2,15.8,80,29.93,3.0,NW,9.2,-,N/A,,Mostly Cloudy,310,2013-01-01 18:35:00
1:55 PM,21.2,14.0,74,29.93,7.0,NW,12.7,17.3,N/A,,Overcast,310,2013-01-01 18:55:00
2:15 PM,21.2,10.4,63,29.92,10.0,West,10.4,16.1,N/A,,Overcast,280,2013-01-01 19:15:00
2:35 PM,21.2,12.2,68,29.93,10.0,North,8.1,16.1,N/A,,Overcast,350,2013-01-01 19:35:00
3:15 PM,21.2,15.8,80,29.93,5.0,North,6.9,-,N/A,,Overcast,360,2013-01-01 20:15:00
3:35 PM,19.4,15.8,86,29.93,6.0,North,8.1,-,N/A,,Overcast,350,2013-01-01 20:35:00
3:55 PM,19.4,15.8,86,29.93,9.0,North,9.2,-,N/A,,Overcast,350,2013-01-01 20:55:00
4:15 PM,19.4,15.8,86,29.95,4.0,NNW,6.9,-,N/A,,Overcast,330,2013-01-01 21:15:00
4:35 PM,19.4,14.0,80,29.95,10.0,WNW,6.9,-,N/A,,Overcast,300,2013-01-01 21:35:00
5:15 PM,19.4,14.0,80,29.97,6.0,WNW,3.5,-,N/A,,Overcast,300,2013-01-01 22:15:00
5:35 PM,19.4,15.8,86,29.97,5.0,WNW,4.6,-,N/A,,Overcast,300,2013-01-01 22:35:00
5:55 PM,19.4,15.8,86,29.97,10.0,WNW,4.6,-,N/A,,Overcast,290,2013-01-01 22:55:00
6:15 PM,19.4,15.8,86,29.97,6.0,West,4.6,-,N/A,,Overcast,280,2013-01-01 23:15:00
6:35 PM,19.4,15.8,86,29.97,10.0,Calm,Calm,-,N/A,,Overcast,0,2013-01-01 23:35:00
6:55 PM,19.4,15.8,86,29.97,9.0,WNW,3.5,-,N/A,,Overcast,290,2013-01-01 23:55:00
7:15 PM,19.4,15.8,86,29.97,10.0,NW,4.6,-,N/A,,Overcast,310,2013-01-02 00:15:00
7:35 PM,19.4,15.8,86,29.97,10.0,NW,4.6,-,N/A,,Overcast,310,2013-01-02 00:35:00
7:55 PM,19.4,12.2,74,29.97,10.0,NW,5.8,-,N/A,,Overcast,310,2013-01-02 00:55:00
8:15 PM,19.4,12.2,74,29.97,10.0,NW,3.5,-,N/A,,Overcast,320,2013-01-02 01:15:00
8:35 PM,19.4,12.2,74,29.96,10.0,NNW,4.6,-,N/A,,Overcast,340,2013-01-02 01:35:00
8:55 PM,19.4,12.2,74,29.96,10.0,NNW,6.9,-,N/A,,Overcast,340,2013-01-02 01:55:00
9:15 PM,19.4,12.2,74,29.97,10.0,North,4.6,-,N/A,,Overcast,350,2013-01-02 02:15:00
9:35 PM,19.4,12.2,74,29.96,10.0,NNW,3.5,-,N/A,,Overcast,330,2013-01-02 02:35:00
9:55 PM,19.4,12.2,74,29.97,10.0,Calm,Calm,-,N/A,,Overcast,0,2013-01-02 02:55:00
10:15 PM,19.4,10.4,68,29.97,10.0,West,3.5,-,N/A,,Overcast,280,2013-01-02 03:15:00
10:35 PM,17.6,12.2,79,29.97,10.0,Calm,Calm,-,N/A,,Overcast,0,2013-01-02 03:35:00
10:55 PM,17.6,10.4,73,29.97,10.0,WSW,4.6,-,N/A,,Overcast,240,2013-01-02 03:55:00
11:15 PM,17.6,12.2,79,29.97,10.0,SW,4.6,-,N/A,,Overcast,230,2013-01-02 04:15:00
11:35 PM,17.6,12.2,79,29.97,10.0,SW,4.6,-,N/A,,Overcast,230,2013-01-02 04:35:00
11:55 PM,19.4,12.2,74,29.96,9.0,SW,4.6,-,N/A,,Overcast,220,2013-01-02 04:55:00